FBU75F FMEE-LFPO

Flight info

Callsign FBU75F
Flight time N/A
Altitude 34000
Route UVENA2J UVENA UN304 DWA DCT XADOX DCT KONET UG650 RASKA T513 EGMEG G660 JDW L677 CVO L617 TANSA UL613 KOR DCT TUMBO DCT OVVER DCT RODON DCT VAKSU DCT BAXON DCT CERVI DCT MOLUS DCT UNKIR DCT DJL
Aircraft A35K/H-SDE2E3GHIJ3J4J5LM1ORWXY/LB1D1

Departure

Time 2026-05-01 09:13
Airport Roland Garros Airport (FMEE)

Arrival

Time N/A
Airport Paris-Orly Airport (LFPO)
Time Latitude Longitude Altitude Speed Heading
2026-05-01 08:56 -20.89090 55.51304 85 ft 0 kts 211°
2026-05-01 09:05 -20.89081 55.51311 85 ft 4 kts 216°
2026-05-01 09:05 -20.89061 55.51330 82 ft 4 kts 237°
2026-05-01 09:05 -20.89052 55.51355 90 ft 4 kts 270°
2026-05-01 09:06 -20.89055 55.51375 83 ft 0 kts 296°
2026-05-01 09:08 -20.89053 55.51371 86 ft 1 kts 296°
2026-05-01 09:08 -20.89050 55.51365 80 ft 2 kts 296°
2026-05-01 09:08 -20.89037 55.51338 86 ft 6 kts 296°
2026-05-01 09:08 -20.89015 55.51291 83 ft 8 kts 297°
2026-05-01 09:09 -20.88987 55.51236 80 ft 9 kts 299°
2026-05-01 09:09 -20.88941 55.51189 80 ft 10 kts 331°
2026-05-01 09:09 -20.88874 55.51162 69 ft 13 kts 341°
2026-05-01 09:09 -20.88761 55.51116 58 ft 14 kts 324°
2026-05-01 09:10 -20.88714 55.51023 66 ft 15 kts 283°
2026-05-01 09:10 -20.88688 55.50900 58 ft 18 kts 282°
2026-05-01 09:10 -20.88659 55.50761 54 ft 19 kts 283°
2026-05-01 09:10 -20.88630 55.50627 52 ft 16 kts 283°
2026-05-01 09:11 -20.88599 55.50551 50 ft 11 kts 303°
2026-05-01 09:11 -20.88584 55.50500 58 ft 4 kts 238°
2026-05-01 09:11 -20.88601 55.50496 59 ft 2 kts 179°
2026-05-01 09:11 -20.88614 55.50513 52 ft 4 kts 107°
2026-05-01 09:12 -20.88619 55.50560 56 ft 2 kts 101°
2026-05-01 09:12 -20.88620 55.50566 60 ft 8 kts 101°
2026-05-01 09:12 -20.88681 55.50870 53 ft 76 kts 102°
2026-05-01 09:13 -20.88840 55.51650 61 ft 137 kts 102°
2026-05-01 09:13 -20.89081 55.52809 288 ft 168 kts 103°
2026-05-01 09:13 -20.89238 55.53988 1185 ft 160 kts 84°
2026-05-01 09:13 -20.88707 55.55016 1607 ft 169 kts 41°
2026-05-01 09:14 -20.87520 55.55407 1731 ft 194 kts
2026-05-01 09:14 -20.86087 55.55364 1811 ft 217 kts
2026-05-01 09:14 -20.84496 55.55289 1944 ft 240 kts
2026-05-01 09:14 -20.82768 55.55307 2198 ft 256 kts
2026-05-01 09:15 -20.80962 55.55511 2600 ft 264 kts 11°
2026-05-01 09:15 -20.79119 55.55811 3080 ft 271 kts
2026-05-01 09:15 -20.77240 55.55691 3598 ft 279 kts 345°
2026-05-01 09:15 -20.75398 55.54969 4242 ft 279 kts 338°
2026-05-01 09:16 -20.73609 55.54158 4872 ft 280 kts 338°
2026-05-01 09:16 -20.71834 55.53358 5500 ft 281 kts 338°
2026-05-01 09:16 -20.70029 55.52553 6138 ft 281 kts 338°
2026-05-01 09:17 -20.66396 55.50955 7320 ft 285 kts 338°
2026-05-01 09:17 -20.64527 55.50140 7935 ft 287 kts 338°
2026-05-01 09:17 -20.60823 55.48534 9123 ft 291 kts 337°
2026-05-01 09:18 -20.58934 55.47713 9683 ft 294 kts 337°
2026-05-01 09:18 -20.55078 55.46027 10581 ft 308 kts 336°
2026-05-01 09:19 -20.50930 55.44208 11054 ft 336 kts 336°
2026-05-01 09:19 -20.48725 55.43242 11287 ft 348 kts 336°
2026-05-01 09:19 -20.46442 55.42243 11513 ft 360 kts 336°
2026-05-01 09:20 -20.41658 55.40155 11932 ft 382 kts 336°
2026-05-01 09:20 -20.36622 55.37958 12299 ft 400 kts 336°
2026-05-01 09:21 -20.31364 55.35663 12700 ft 414 kts 336°
2026-05-01 09:21 -20.28688 55.34498 13006 ft 417 kts 336°
2026-05-01 09:21 -20.23295 55.32155 13674 ft 420 kts 336°
2026-05-01 09:22 -20.17859 55.29790 14344 ft 423 kts 336°
2026-05-01 09:22 -20.12379 55.27409 14997 ft 427 kts 335°
2026-05-01 09:23 -20.09625 55.26213 15328 ft 428 kts 335°
2026-05-01 09:23 -20.04122 55.23823 15937 ft 431 kts 335°
2026-05-01 09:24 -19.98526 55.21395 16560 ft 435 kts 335°
2026-05-01 09:24 -19.95717 55.20176 16847 ft 437 kts 336°
2026-05-01 09:24 -19.90072 55.17730 17449 ft 440 kts 336°
2026-05-01 09:25 -19.84376 55.15263 18053 ft 443 kts 336°
2026-05-01 09:25 -19.78673 55.12794 18583 ft 448 kts 336°
2026-05-01 09:26 -19.75776 55.11540 18843 ft 450 kts 336°
2026-05-01 09:26 -19.69944 55.09021 19324 ft 455 kts 336°
2026-05-01 09:26 -19.67006 55.07752 19587 ft 456 kts 336°
2026-05-01 09:27 -19.61081 55.05194 20058 ft 461 kts 336°
2026-05-01 09:27 -19.58102 55.03910 20315 ft 463 kts 336°
2026-05-01 09:27 -19.55111 55.02621 20574 ft 465 kts 336°
2026-05-01 09:28 -19.52111 55.01327 20798 ft 467 kts 336°
2026-05-01 09:28 -19.49100 55.00028 21035 ft 469 kts 336°
2026-05-01 09:28 -19.46071 54.98723 21296 ft 471 kts 336°
2026-05-01 09:28 -19.43068 54.97430 21527 ft 472 kts 336°
2026-05-01 09:29 -19.36934 54.94790 21995 ft 477 kts 336°
2026-05-01 09:29 -19.33847 54.93463 22203 ft 480 kts 337°
2026-05-01 09:30 -19.27650 54.90802 22716 ft 483 kts 337°
2026-05-01 09:30 -19.24525 54.89459 22924 ft 485 kts 337°
2026-05-01 09:30 -19.18236 54.86760 23408 ft 489 kts 337°
2026-05-01 09:31 -19.15110 54.85419 23639 ft 491 kts 337°
2026-05-01 09:31 -19.11892 54.84038 23857 ft 493 kts 337°
2026-05-01 09:31 -19.05542 54.81316 24316 ft 497 kts 337°
2026-05-01 09:32 -19.02364 54.79880 24602 ft 498 kts 333°
2026-05-01 09:32 -18.96637 54.75796 25093 ft 498 kts 316°
2026-05-01 09:32 -18.94093 54.73297 25328 ft 500 kts 315°
2026-05-01 09:33 -18.91560 54.70754 25609 ft 502 kts 315°
2026-05-01 09:33 -18.89022 54.68210 25894 ft 504 kts 315°
2026-05-01 09:33 -18.83913 54.63108 26435 ft 507 kts 315°
2026-05-01 09:34 -18.81338 54.60549 26717 ft 509 kts 315°
2026-05-01 09:34 -18.78756 54.57981 26997 ft 511 kts 315°
2026-05-01 09:34 -18.73567 54.52824 27595 ft 514 kts 315°
2026-05-01 09:35 -18.70989 54.50264 27851 ft 516 kts 315°
2026-05-01 09:35 -18.65741 54.45059 28360 ft 519 kts 315°
2026-05-01 09:35 -18.63089 54.42455 28588 ft 522 kts 316°
2026-05-01 09:36 -18.60210 54.40099 28831 ft 525 kts 326°
2026-05-01 09:36 -18.57013 54.38224 29158 ft 526 kts 332°
2026-05-01 09:36 -18.53707 54.36563 29524 ft 525 kts 334°
2026-05-01 09:36 -18.50384 54.34990 29857 ft 524 kts 335°
2026-05-01 09:37 -18.47086 54.33468 30141 ft 523 kts 335°
2026-05-01 09:37 -18.40415 54.30390 30733 ft 521 kts 335°
2026-05-01 09:37 -18.37105 54.28846 31043 ft 520 kts 334°
2026-05-01 09:38 -18.31601 54.26257 31538 ft 518 kts 334°
2026-05-01 09:38 -18.28312 54.24704 31825 ft 517 kts 334°
2026-05-01 09:38 -18.23970 54.22654 32250 ft 514 kts 334°
2026-05-01 09:39 -18.18538 54.20091 32672 ft 513 kts 334°
2026-05-01 09:39 -18.15286 54.18557 32908 ft 512 kts 335°
2026-05-01 09:39 -18.12038 54.17025 33147 ft 511 kts 335°
2026-05-01 09:40 -18.08800 54.15498 33382 ft 510 kts 335°
2026-05-01 09:40 -18.02345 54.12442 33803 ft 508 kts 335°
2026-05-01 09:40 -17.99126 54.10910 33996 ft 508 kts 334°
2026-05-01 09:41 -17.95903 54.09376 34051 ft 510 kts 335°
2026-05-01 09:41 -17.86139 54.04740 34045 ft 513 kts 335°
2026-05-01 09:42 -17.79611 54.01646 34046 ft 513 kts 335°
2026-05-01 09:43 -17.66636 53.95500 34045 ft 513 kts 335°
2026-05-01 09:43 -17.60130 53.92427 34045 ft 512 kts 335°
2026-05-01 09:44 -17.50370 53.87821 34046 ft 512 kts 335°
2026-05-01 09:45 -17.43865 53.84750 34044 ft 512 kts 335°
2026-05-01 09:45 -17.34122 53.80157 34046 ft 512 kts 335°
2026-05-01 09:46 -17.27626 53.77099 34046 ft 511 kts 335°
2026-05-01 09:46 -17.21181 53.74066 34046 ft 511 kts 335°
2026-05-01 09:47 -17.14701 53.71018 34046 ft 510 kts 335°
2026-05-01 09:47 -17.08228 53.67977 34044 ft 510 kts 335°
2026-05-01 09:48 -17.01749 53.64935 34045 ft 509 kts 335°
2026-05-01 09:48 -16.95294 53.61905 34044 ft 509 kts 335°
2026-05-01 09:49 -16.88837 53.58878 34044 ft 508 kts 335°
2026-05-01 09:49 -16.82387 53.55856 34045 ft 508 kts 335°
2026-05-01 09:50 -16.75932 53.52834 34045 ft 507 kts 335°
2026-05-01 09:50 -16.69487 53.49821 34046 ft 507 kts 335°
2026-05-01 09:51 -16.63089 53.46833 34030 ft 507 kts 335°
2026-05-01 09:51 -16.56650 53.43826 34031 ft 507 kts 335°
2026-05-01 09:52 -16.50216 53.40823 34029 ft 506 kts 335°
2026-05-01 09:52 -16.43779 53.37825 34030 ft 506 kts 335°
2026-05-01 09:53 -16.37349 53.34830 34032 ft 506 kts 335°
2026-05-01 09:53 -16.30922 53.31837 34028 ft 506 kts 335°
2026-05-01 09:54 -16.24489 53.28841 34045 ft 506 kts 335°
2026-05-01 09:54 -16.18061 53.25850 34031 ft 506 kts 335°
2026-05-01 09:55 -16.11668 53.22882 34047 ft 506 kts 335°
2026-05-01 09:55 -16.05237 53.19897 34028 ft 506 kts 335°
2026-05-01 09:56 -15.98812 53.16915 34046 ft 505 kts 336°
2026-05-01 09:56 -15.92390 53.13938 34032 ft 505 kts 336°
2026-05-01 09:57 -15.85973 53.10964 34028 ft 505 kts 336°
2026-05-01 09:57 -15.79556 53.07992 34026 ft 504 kts 336°
2026-05-01 09:58 -15.73143 53.05024 34030 ft 505 kts 336°
2026-05-01 09:58 -15.66765 53.02078 34023 ft 504 kts 336°
2026-05-01 09:59 -15.60347 52.99112 34027 ft 504 kts 335°
2026-05-01 09:59 -15.53940 52.96149 34025 ft 504 kts 336°
2026-05-01 10:00 -15.47530 52.93194 34025 ft 503 kts 335°
2026-05-01 10:00 -15.41122 52.90239 34024 ft 504 kts 336°
2026-05-01 10:01 -15.34757 52.87307 34018 ft 503 kts 336°
2026-05-01 10:01 -15.28349 52.84361 34019 ft 504 kts 336°
2026-05-01 10:02 -15.21943 52.81412 34017 ft 504 kts 336°
2026-05-01 10:02 -15.15540 52.78469 34024 ft 503 kts 335°
2026-05-01 10:03 -15.09139 52.75524 34018 ft 504 kts 336°
2026-05-01 10:03 -15.02729 52.72580 34018 ft 504 kts 336°
2026-05-01 10:04 -14.96315 52.69636 34007 ft 504 kts 336°
2026-05-01 10:04 -14.89946 52.66715 34011 ft 504 kts 336°
2026-05-01 10:05 -14.83537 52.63778 34007 ft 504 kts 336°
2026-05-01 10:05 -14.77135 52.60842 34006 ft 503 kts 335°
2026-05-01 10:06 -14.70737 52.57914 34007 ft 503 kts 336°
2026-05-01 10:06 -14.64331 52.54984 34009 ft 503 kts 336°
2026-05-01 10:07 -14.57928 52.52059 34000 ft 503 kts 335°
2026-05-01 10:07 -14.51524 52.49136 34000 ft 503 kts 336°
2026-05-01 10:08 -14.41960 52.44769 33998 ft 503 kts 336°
2026-05-01 10:09 -14.35550 52.41843 33999 ft 504 kts 336°
2026-05-01 10:09 -14.29138 52.38922 33998 ft 503 kts 336°
2026-05-01 10:10 -14.22737 52.36003 33991 ft 504 kts 336°
2026-05-01 10:10 -14.13114 52.31624 33989 ft 503 kts 336°
2026-05-01 10:11 -14.06703 52.28710 33990 ft 503 kts 336°
2026-05-01 10:11 -14.00295 52.25797 33990 ft 504 kts 336°
2026-05-01 10:12 -13.94954 52.23369 33990 ft 504 kts 336°
2026-05-01 10:13 -13.84289 52.18531 33980 ft 503 kts 336°
2026-05-01 10:13 -13.77870 52.15616 33981 ft 503 kts 336°
2026-05-01 10:14 -13.68258 52.11255 33972 ft 503 kts 336°
2026-05-01 10:14 -13.61850 52.08350 33972 ft 503 kts 336°
2026-05-01 10:15 -13.55438 52.05450 33971 ft 504 kts 336°
2026-05-01 10:15 -13.49022 52.02552 33974 ft 503 kts 336°
2026-05-01 10:16 -13.42649 51.99676 33974 ft 503 kts 336°
2026-05-01 10:17 -13.33030 51.95330 33975 ft 503 kts 336°
2026-05-01 10:17 -13.23405 51.90979 33965 ft 503 kts 336°
2026-05-01 10:18 -13.13783 51.86640 33963 ft 503 kts 336°
2026-05-01 10:19 -13.07366 51.83750 33962 ft 503 kts 336°
2026-05-01 10:19 -13.00954 51.80858 33965 ft 503 kts 336°
2026-05-01 10:20 -12.91369 51.76545 33961 ft 503 kts 336°
2026-05-01 10:20 -12.84952 51.73661 33964 ft 503 kts 336°
2026-05-01 10:21 -12.75321 51.69332 33952 ft 504 kts 336°
2026-05-01 10:22 -12.65692 51.65008 33956 ft 503 kts 336°
2026-05-01 10:23 -12.56092 51.60697 33953 ft 504 kts 336°
2026-05-01 10:23 -12.46457 51.56378 33949 ft 503 kts 336°
2026-05-01 10:24 -12.34723 51.51119 33945 ft 503 kts 336°
2026-05-01 10:25 -12.20849 51.44916 33951 ft 503 kts 336°
2026-05-01 10:26 -12.14431 51.42047 33935 ft 503 kts 336°
2026-05-01 10:27 -12.02643 51.36771 33937 ft 503 kts 336°
2026-05-01 10:28 -11.93063 51.32499 33934 ft 503 kts 336°
2026-05-01 10:28 -11.83428 51.28201 33934 ft 504 kts 336°
2026-05-01 10:29 -11.73789 51.23907 33936 ft 504 kts 336°
2026-05-01 10:30 -11.60934 51.18183 33950 ft 504 kts 336°
2026-05-01 10:31 -11.48113 51.12484 33936 ft 504 kts 336°
2026-05-01 10:32 -11.38456 51.08193 33936 ft 504 kts 336°
2026-05-01 10:33 -11.25598 51.02485 33936 ft 503 kts 336°
2026-05-01 10:34 -11.15962 50.98211 33935 ft 503 kts 336°
2026-05-01 10:34 -11.09530 50.95359 33936 ft 504 kts 336°
2026-05-01 10:35 -10.99912 50.91097 33936 ft 505 kts 337°
2026-05-01 10:35 -10.93474 50.88246 33953 ft 504 kts 337°
2026-05-01 10:36 -10.83805 50.83968 33940 ft 505 kts 337°
2026-05-01 10:37 -10.77361 50.81117 33947 ft 505 kts 337°
2026-05-01 10:37 -10.67695 50.76846 33946 ft 505 kts 337°
2026-05-01 10:38 -10.61247 50.73999 33937 ft 505 kts 337°
2026-05-01 10:38 -10.54796 50.71152 33940 ft 505 kts 337°
2026-05-01 10:39 -10.48391 50.68318 33942 ft 506 kts 337°
2026-05-01 10:39 -10.41935 50.65469 33935 ft 505 kts 337°
2026-05-01 10:40 -10.35477 50.62619 33934 ft 505 kts 337°
2026-05-01 10:40 -10.29016 50.59772 33935 ft 506 kts 337°
2026-05-01 10:41 -10.22555 50.56926 33934 ft 505 kts 337°
2026-05-01 10:42 -9.88629 50.41991 33916 ft 504 kts 337°
2026-05-01 10:42 -9.48884 50.24552 33933 ft 507 kts 337°
2026-05-01 10:43 -8.97446 50.02011 33934 ft 507 kts 338°
2026-05-01 10:43 -8.45718 49.79433 33934 ft 506 kts 338°
2026-05-01 10:44 -7.93989 49.56920 33925 ft 506 kts 338°
2026-05-01 10:44 -7.42253 49.34456 33924 ft 505 kts 339°
2026-05-01 10:45 -7.13508 49.22005 33926 ft 505 kts 339°
2026-05-01 10:45 -6.67917 49.02288 33926 ft 504 kts 339°
2026-05-01 10:46 -6.16238 48.79986 33925 ft 504 kts 339°
2026-05-01 10:46 -5.64742 48.57811 33915 ft 503 kts 339°
2026-05-01 10:47 -5.13360 48.35724 33914 ft 503 kts 340°
2026-05-01 10:47 -4.62218 48.13780 33924 ft 503 kts 340°
2026-05-01 10:48 -4.10734 47.91715 33904 ft 502 kts 340°
2026-05-01 10:48 -3.59339 47.69687 33907 ft 503 kts 340°
2026-05-01 10:49 -3.38844 47.60914 33909 ft 504 kts 340°
2026-05-01 10:49 -3.32397 47.58149 33905 ft 504 kts 340°
2026-05-01 10:50 -3.25943 47.55383 33908 ft 505 kts 340°
2026-05-01 10:50 -3.19479 47.52617 33905 ft 505 kts 340°
2026-05-01 10:51 -3.13056 47.49869 33908 ft 505 kts 340°
2026-05-01 10:51 -3.06586 47.47102 33903 ft 505 kts 340°
2026-05-01 10:52 -3.00111 47.44332 33906 ft 506 kts 340°
2026-05-01 10:52 -2.93630 47.41558 33905 ft 506 kts 340°
2026-05-01 10:53 -2.87191 47.38801 33906 ft 506 kts 340°
2026-05-01 10:53 -2.80703 47.36028 33908 ft 507 kts 340°
2026-05-01 10:54 -2.74212 47.33256 33908 ft 507 kts 340°
2026-05-01 10:54 -2.67724 47.30480 33907 ft 507 kts 340°
2026-05-01 10:55 -2.61231 47.27703 33902 ft 507 kts 340°
2026-05-01 10:55 -2.54742 47.24927 33906 ft 507 kts 339°
2026-05-01 10:56 -2.48239 47.22151 33907 ft 508 kts 340°
2026-05-01 10:56 -2.41742 47.19372 33905 ft 508 kts 340°
2026-05-01 10:57 -2.35280 47.16609 33903 ft 508 kts 340°
2026-05-01 10:57 -2.28778 47.13834 33908 ft 508 kts 339°
2026-05-01 10:58 -2.22276 47.11058 33907 ft 508 kts 339°
2026-05-01 10:58 -2.15769 47.08275 33908 ft 509 kts 339°
2026-05-01 10:59 -2.09258 47.05493 33905 ft 508 kts 339°
2026-05-01 10:59 -2.02748 47.02714 33907 ft 508 kts 340°
2026-05-01 11:00 -1.96292 46.99958 33905 ft 508 kts 339°
2026-05-01 11:00 -1.89788 46.97179 33905 ft 508 kts 339°
2026-05-01 11:01 -1.83276 46.94397 33908 ft 509 kts 339°
2026-05-01 11:01 -1.76752 46.91615 33909 ft 509 kts 339°
2026-05-01 11:02 -1.70239 46.88834 33908 ft 509 kts 339°
2026-05-01 11:02 -1.63727 46.86053 33905 ft 509 kts 339°
2026-05-01 11:03 -1.57219 46.83274 33905 ft 508 kts 339°
2026-05-01 11:03 -1.50753 46.80514 33905 ft 508 kts 339°
2026-05-01 11:04 -1.44247 46.77742 33909 ft 508 kts 339°
2026-05-01 11:04 -1.37741 46.74965 33906 ft 508 kts 339°
2026-05-01 11:05 -1.31238 46.72186 33903 ft 508 kts 339°
2026-05-01 11:05 -1.24723 46.69404 33904 ft 508 kts 339°
2026-05-01 11:06 -1.18212 46.66627 33902 ft 509 kts 339°
2026-05-01 11:06 -1.11692 46.63844 33907 ft 509 kts 339°
2026-05-01 11:07 -1.01923 46.59679 33907 ft 509 kts 339°
2026-05-01 11:07 -0.95455 46.56914 33904 ft 509 kts 339°
2026-05-01 11:08 -0.88942 46.54134 33907 ft 509 kts 339°
2026-05-01 11:09 -0.79160 46.49964 33907 ft 509 kts 339°
2026-05-01 11:09 -0.72639 46.47181 33907 ft 509 kts 339°
2026-05-01 11:10 -0.62853 46.43008 33906 ft 510 kts 339°
2026-05-01 11:10 -0.56325 46.40221 33907 ft 510 kts 339°
2026-05-01 11:11 -0.50901 46.37908 33905 ft 510 kts 339°
2026-05-01 11:11 -0.44374 46.35123 33909 ft 510 kts 338°
2026-05-01 11:12 -0.36782 46.31885 33905 ft 510 kts 339°
2026-05-01 11:12 -0.31308 46.29553 33905 ft 510 kts 338°
2026-05-01 11:13 -0.24775 46.26767 33904 ft 510 kts 338°
2026-05-01 11:13 -0.18242 46.23977 33910 ft 510 kts 338°
2026-05-01 11:14 -0.11720 46.21147 33910 ft 511 kts 338°
2026-05-01 11:14 -0.05247 46.18296 33908 ft 511 kts 338°
2026-05-01 11:15 0.01265 46.15431 33906 ft 511 kts 338°
2026-05-01 11:15 0.07783 46.12575 33904 ft 511 kts 338°
2026-05-01 11:16 0.14306 46.09720 33909 ft 511 kts 338°
2026-05-01 11:16 0.20819 46.06870 33907 ft 511 kts 338°
2026-05-01 11:17 0.27336 46.04016 33907 ft 511 kts 338°
2026-05-01 11:17 0.33813 46.01177 33906 ft 511 kts 338°
2026-05-01 11:18 0.40330 45.98324 33906 ft 511 kts 338°
2026-05-01 11:18 0.46854 45.95472 33908 ft 511 kts 338°
2026-05-01 11:19 0.53368 45.92621 33907 ft 511 kts 338°
2026-05-01 11:19 0.59895 45.89778 33908 ft 511 kts 338°
2026-05-01 11:20 0.66436 45.86972 33909 ft 511 kts 338°
2026-05-01 11:20 0.72983 45.84175 33907 ft 512 kts 338°
2026-05-01 11:21 0.79526 45.81372 33910 ft 511 kts 338°
2026-05-01 11:21 0.86018 45.78580 33910 ft 511 kts 338°
2026-05-01 11:22 0.92558 45.75774 33905 ft 511 kts 338°
2026-05-01 11:22 0.99093 45.72970 33910 ft 511 kts 338°
2026-05-01 11:23 1.05636 45.70159 33887 ft 512 kts 338°
2026-05-01 11:23 1.12189 45.67343 33889 ft 512 kts 338°
2026-05-01 11:24 1.18736 45.64532 33890 ft 512 kts 338°
2026-05-01 11:25 1.28556 45.60316 33890 ft 512 kts 338°
2026-05-01 11:25 1.38376 45.56100 33886 ft 512 kts 338°
2026-05-01 11:26 1.48202 45.51883 33889 ft 512 kts 338°
2026-05-01 11:27 1.54743 45.49069 33890 ft 512 kts 338°
2026-05-01 11:27 1.61250 45.46277 33885 ft 512 kts 338°
2026-05-01 11:28 1.67801 45.43463 33893 ft 512 kts 338°
2026-05-01 11:28 1.74352 45.40648 33886 ft 512 kts 338°
2026-05-01 11:29 1.80721 45.37911 33885 ft 512 kts 338°
2026-05-01 11:30 1.88105 45.34737 33886 ft 512 kts 338°
2026-05-01 11:30 1.94229 45.32104 33885 ft 512 kts 338°
2026-05-01 11:31 1.96699 45.31044 33886 ft 512 kts 338°
2026-05-01 11:31 2.01313 45.29061 33885 ft 512 kts 338°
2026-05-01 11:32 2.07193 45.26483 33892 ft 512 kts 337°
2026-05-01 11:32 2.13698 45.23582 33885 ft 512 kts 337°
2026-05-01 11:33 2.20220 45.20680 33890 ft 512 kts 337°
2026-05-01 11:33 2.26729 45.17791 33885 ft 512 kts 337°
2026-05-01 11:34 2.33200 45.14923 33886 ft 512 kts 337°
2026-05-01 11:34 2.39709 45.12041 33886 ft 512 kts 337°
2026-05-01 11:35 2.46217 45.09156 33885 ft 512 kts 337°
2026-05-01 11:35 2.52733 45.06271 33894 ft 512 kts 337°
2026-05-01 11:36 2.59242 45.03385 33885 ft 512 kts 337°
2026-05-01 11:36 2.65751 45.00499 33895 ft 512 kts 337°
2026-05-01 11:37 2.72275 44.97609 33884 ft 512 kts 337°
2026-05-01 11:37 2.78786 44.94725 33891 ft 512 kts 337°
2026-05-01 11:38 2.85313 44.91829 33895 ft 512 kts 337°
2026-05-01 11:38 2.91786 44.88956 33883 ft 512 kts 337°
2026-05-01 11:39 2.98295 44.86063 33895 ft 512 kts 337°
2026-05-01 11:39 3.04814 44.83172 33884 ft 512 kts 337°
2026-05-01 11:40 3.11328 44.80285 33893 ft 512 kts 337°
2026-05-01 11:40 3.17846 44.77393 33892 ft 512 kts 337°
2026-05-01 11:41 3.24367 44.74499 33895 ft 512 kts 337°
2026-05-01 11:41 3.30849 44.71625 33896 ft 513 kts 337°
2026-05-01 11:42 3.37364 44.68733 33897 ft 512 kts 337°
2026-05-01 11:42 3.43896 44.65825 33898 ft 513 kts 337°
2026-05-01 11:43 3.50417 44.62929 33897 ft 513 kts 337°
2026-05-01 11:43 3.56940 44.60035 33894 ft 513 kts 337°
2026-05-01 11:44 3.66741 44.55688 33899 ft 514 kts 337°
2026-05-01 11:44 3.73228 44.52800 33908 ft 514 kts 337°
2026-05-01 11:45 3.79764 44.49891 33907 ft 514 kts 337°
2026-05-01 11:45 3.86312 44.46980 33908 ft 514 kts 337°
2026-05-01 11:46 3.92857 44.44073 33909 ft 514 kts 337°
2026-05-01 11:46 3.99401 44.41160 33910 ft 514 kts 337°
2026-05-01 11:47 4.05941 44.38253 33912 ft 514 kts 338°
2026-05-01 11:47 4.12484 44.35346 33918 ft 514 kts 338°
2026-05-01 11:48 4.18990 44.32453 33915 ft 515 kts 338°
2026-05-01 11:48 4.25529 44.29541 33917 ft 514 kts 338°
2026-05-01 11:49 4.32084 44.26622 33918 ft 514 kts 337°
2026-05-01 11:49 4.38622 44.23709 33925 ft 514 kts 337°
2026-05-01 11:50 4.45160 44.20800 33925 ft 514 kts 337°
2026-05-01 11:50 4.51709 44.17887 33924 ft 514 kts 337°
2026-05-01 11:51 4.58200 44.14996 33925 ft 513 kts 337°
2026-05-01 11:51 4.64725 44.12089 33934 ft 513 kts 337°
2026-05-01 11:52 4.71247 44.09184 33935 ft 512 kts 337°
2026-05-01 11:52 4.77777 44.06275 33935 ft 512 kts 337°
2026-05-01 11:53 4.84283 44.03374 33935 ft 512 kts 337°
2026-05-01 11:53 4.90769 44.00482 33950 ft 511 kts 337°
2026-05-01 11:54 4.97273 43.97559 33950 ft 511 kts 336°
2026-05-01 11:54 5.03731 43.94608 33938 ft 510 kts 336°
2026-05-01 11:55 5.10184 43.91666 33955 ft 509 kts 336°
2026-05-01 11:55 5.16636 43.88729 33950 ft 509 kts 336°
2026-05-01 11:56 5.23073 43.85794 33951 ft 508 kts 336°
2026-05-01 11:56 5.28427 43.83360 33956 ft 508 kts 336°
2026-05-01 11:57 5.34851 43.80439 33957 ft 507 kts 336°
2026-05-01 11:57 5.41278 43.77513 33956 ft 507 kts 336°
2026-05-01 11:58 5.47705 43.74585 33957 ft 507 kts 336°
2026-05-01 11:59 5.57333 43.70199 33958 ft 506 kts 336°
2026-05-01 11:59 5.63704 43.67301 33971 ft 506 kts 336°
2026-05-01 12:00 5.70090 43.64395 34507 ft 500 kts 336°
2026-05-01 12:00 5.73262 43.62957 34761 ft 499 kts 336°
2026-05-01 12:00 5.79597 43.60079 35158 ft 499 kts 336°
2026-05-01 12:01 5.82761 43.58640 35343 ft 499 kts 336°
2026-05-01 12:01 5.85917 43.57203 35520 ft 499 kts 336°
2026-05-01 12:01 5.89082 43.55763 35684 ft 499 kts 336°
2026-05-01 12:01 5.92247 43.54322 35832 ft 499 kts 336°
2026-05-01 12:02 5.95371 43.52901 35959 ft 499 kts 336°
2026-05-01 12:02 6.01738 43.50008 35989 ft 504 kts 336°
2026-05-01 12:03 6.08145 43.47096 35985 ft 505 kts 336°
2026-05-01 12:03 6.14544 43.44184 35994 ft 505 kts 336°
2026-05-01 12:04 6.20951 43.41267 35989 ft 507 kts 337°
2026-05-01 12:04 6.27380 43.38342 35992 ft 507 kts 337°
2026-05-01 12:05 6.33768 43.35431 35992 ft 507 kts 337°
2026-05-01 12:05 6.43390 43.31050 36003 ft 506 kts 337°
2026-05-01 12:06 6.49820 43.28119 36000 ft 506 kts 336°
2026-05-01 12:06 6.56228 43.25199 36008 ft 505 kts 337°
2026-05-01 12:07 6.62628 43.22282 36008 ft 505 kts 336°
2026-05-01 12:07 6.68981 43.19383 36008 ft 505 kts 336°
2026-05-01 12:08 6.75379 43.16463 36005 ft 504 kts 336°
2026-05-01 12:08 6.81768 43.13546 36016 ft 504 kts 336°
2026-05-01 12:09 6.88158 43.10633 36017 ft 504 kts 336°
2026-05-01 12:09 6.94544 43.07720 36018 ft 504 kts 336°
2026-05-01 12:10 7.04119 43.03356 36027 ft 503 kts 336°
2026-05-01 12:11 7.13709 42.99001 36025 ft 503 kts 336°
2026-05-01 12:11 7.20059 42.96113 36026 ft 503 kts 336°
2026-05-01 12:12 7.26433 42.93209 36036 ft 503 kts 336°
2026-05-01 12:12 7.32816 42.90304 36035 ft 503 kts 336°
2026-05-01 12:13 7.39193 42.87399 36036 ft 503 kts 336°
2026-05-01 12:13 7.45569 42.84493 36035 ft 503 kts 336°
2026-05-01 12:14 7.51947 42.81589 36052 ft 503 kts 336°
2026-05-01 12:14 7.58324 42.78684 36042 ft 503 kts 336°
2026-05-01 12:15 7.64700 42.75777 36054 ft 503 kts 336°
2026-05-01 12:15 7.71072 42.72865 36051 ft 503 kts 336°
2026-05-01 12:16 7.77405 42.69977 36046 ft 503 kts 336°
2026-05-01 12:16 7.83776 42.67070 36046 ft 503 kts 336°
2026-05-01 12:17 7.90149 42.64162 36057 ft 502 kts 336°
2026-05-01 12:17 7.96513 42.61248 36057 ft 502 kts 336°
2026-05-01 12:18 8.02879 42.58343 36051 ft 502 kts 336°
2026-05-01 12:18 8.09244 42.55438 36065 ft 502 kts 336°
2026-05-01 12:19 8.15610 42.52527 36064 ft 502 kts 336°
2026-05-01 12:19 8.21976 42.49617 36064 ft 502 kts 336°
2026-05-01 12:20 8.28303 42.46728 36067 ft 502 kts 336°
2026-05-01 12:20 8.34669 42.43818 36069 ft 502 kts 336°
2026-05-01 12:21 8.41031 42.40910 36070 ft 502 kts 336°
2026-05-01 12:21 8.47394 42.38006 36070 ft 502 kts 336°
2026-05-01 12:22 8.53756 42.35099 36071 ft 502 kts 336°
2026-05-01 12:22 8.60124 42.32188 36071 ft 502 kts 336°
2026-05-01 12:23 8.66490 42.29281 36076 ft 502 kts 336°
2026-05-01 12:23 8.72862 42.26372 36074 ft 502 kts 336°
2026-05-01 12:24 8.79229 42.23462 36072 ft 502 kts 335°
2026-05-01 12:24 8.85587 42.20554 36070 ft 501 kts 335°
2026-05-01 12:25 8.95132 42.16186 36082 ft 502 kts 335°
2026-05-01 12:26 9.01441 42.13297 36082 ft 502 kts 335°
2026-05-01 12:26 9.10985 42.08929 36100 ft 501 kts 335°
2026-05-01 12:27 9.20498 42.04572 36101 ft 500 kts 335°
2026-05-01 12:28 9.30008 42.00208 36100 ft 500 kts 335°
2026-05-01 12:29 9.39503 41.95854 36106 ft 498 kts 335°
2026-05-01 12:29 9.48928 41.91527 36114 ft 498 kts 335°
2026-05-01 12:30 9.58391 41.87181 36111 ft 498 kts 335°
2026-05-01 12:31 9.64702 41.84287 36108 ft 498 kts 335°
2026-05-01 12:31 9.70938 41.81248 36110 ft 497 kts 332°
2026-05-01 12:32 9.77118 41.78064 36112 ft 497 kts 332°
2026-05-01 12:32 9.86350 41.73349 36112 ft 497 kts 332°
2026-05-01 12:33 9.92539 41.70218 36113 ft 497 kts 333°
2026-05-01 12:33 9.98738 41.67094 36105 ft 497 kts 333°
2026-05-01 12:34 10.04931 41.63968 36110 ft 497 kts 333°
2026-05-01 12:34 10.11120 41.60842 36109 ft 497 kts 333°
2026-05-01 12:35 10.17306 41.57716 36111 ft 496 kts 333°
2026-05-01 12:35 10.23485 41.54591 36108 ft 497 kts 333°
2026-05-01 12:36 10.29682 41.51458 36108 ft 496 kts 333°
2026-05-01 12:36 10.35862 41.48327 36109 ft 496 kts 332°
2026-05-01 12:37 10.42005 41.45213 36108 ft 496 kts 333°
2026-05-01 12:37 10.48190 41.42081 36108 ft 496 kts 333°
2026-05-01 12:38 10.54383 41.38944 36110 ft 496 kts 333°
2026-05-01 12:38 10.60562 41.35810 36109 ft 496 kts 333°
2026-05-01 12:39 10.66704 41.32691 36109 ft 496 kts 333°
2026-05-01 12:39 10.72878 41.29557 36101 ft 495 kts 333°
2026-05-01 12:40 10.79041 41.26427 36101 ft 495 kts 333°
2026-05-01 12:40 10.85206 41.23294 36102 ft 495 kts 332°
2026-05-01 12:41 10.91382 41.20153 36100 ft 496 kts 332°
2026-05-01 12:41 10.97547 41.17016 36101 ft 495 kts 333°
2026-05-01 12:42 11.03712 41.13879 36100 ft 495 kts 333°
2026-05-01 12:42 11.09881 41.10737 36101 ft 495 kts 333°
2026-05-01 12:43 11.16044 41.07603 36102 ft 495 kts 332°
2026-05-01 12:43 11.22204 41.04462 36100 ft 495 kts 333°
2026-05-01 12:44 11.27327 41.01852 36101 ft 495 kts 332°
2026-05-01 12:45 11.39642 40.95574 36091 ft 494 kts 332°
2026-05-01 12:45 11.45792 40.92434 36082 ft 495 kts 332°
2026-05-01 12:46 11.51949 40.89290 36082 ft 494 kts 332°
2026-05-01 12:46 11.58096 40.86146 36073 ft 494 kts 332°
2026-05-01 12:47 11.64206 40.83023 36076 ft 494 kts 332°
2026-05-01 12:47 11.70353 40.79881 36072 ft 494 kts 332°
2026-05-01 12:48 11.76491 40.76740 36070 ft 493 kts 332°
2026-05-01 12:48 11.82623 40.73599 36074 ft 493 kts 332°
2026-05-01 12:49 11.88752 40.70459 36072 ft 493 kts 332°
2026-05-01 12:49 11.94884 40.67316 36067 ft 492 kts 332°
2026-05-01 12:50 12.01014 40.64172 36062 ft 492 kts 332°
2026-05-01 12:50 12.07100 40.61050 36066 ft 493 kts 332°
2026-05-01 12:51 12.13220 40.57909 36066 ft 492 kts 332°
2026-05-01 12:52 12.22403 40.53196 36064 ft 492 kts 332°
2026-05-01 12:52 12.31570 40.48478 36053 ft 492 kts 332°
2026-05-01 12:53 12.40751 40.43757 36037 ft 492 kts 332°
2026-05-01 12:54 12.46718 40.40355 36045 ft 491 kts 324°
2026-05-01 12:54 12.55070 40.34362 36034 ft 490 kts 323°
2026-05-01 12:55 12.63378 40.28234 36036 ft 491 kts 323°
2026-05-01 12:56 12.68918 40.24160 36037 ft 491 kts 323°
2026-05-01 12:56 12.74473 40.20081 36027 ft 491 kts 323°
2026-05-01 12:57 12.80023 40.16003 36008 ft 491 kts 323°
2026-05-01 12:57 12.88357 40.09880 35995 ft 491 kts 323°
2026-05-01 12:58 12.93876 40.05821 35995 ft 491 kts 323°
2026-05-01 12:59 13.02209 39.99690 36000 ft 491 kts 323°
2026-05-01 12:59 13.10535 39.93549 36002 ft 491 kts 323°
2026-05-01 13:00 13.18858 39.87422 35995 ft 492 kts 323°
2026-05-01 13:01 13.27196 39.81271 35985 ft 492 kts 323°
2026-05-01 13:02 13.35525 39.75120 35994 ft 492 kts 323°
2026-05-01 13:07 13.96560 39.29873 35970 ft 492 kts 323°
2026-05-01 13:08 14.02103 39.25745 35965 ft 492 kts 322°
2026-05-01 13:08 14.07649 39.21615 35962 ft 492 kts 322°
2026-05-01 13:09 14.13202 39.17483 35965 ft 492 kts 322°
2026-05-01 13:09 14.18753 39.13348 35962 ft 493 kts 322°
2026-05-01 13:10 14.24276 39.09226 35961 ft 493 kts 322°
2026-05-01 13:10 14.29830 39.05079 35962 ft 493 kts 322°
2026-05-01 13:11 14.35390 39.00929 35963 ft 493 kts 322°
2026-05-01 13:11 14.40946 38.96783 35962 ft 493 kts 322°
2026-05-01 13:12 14.46618 38.92804 35956 ft 495 kts 330°
2026-05-01 13:12 14.53085 38.90380 35952 ft 499 kts 348°
2026-05-01 13:13 14.60051 38.89903 35952 ft 503 kts 357°
2026-05-01 13:13 14.67062 38.89923 35953 ft 504 kts 359°
2026-05-01 13:14 14.74042 38.89993 35950 ft 504 kts 358°
2026-05-01 13:14 14.81066 38.90032 35943 ft 505 kts 358°
2026-05-01 13:15 14.88096 38.90043 35942 ft 506 kts 358°
2026-05-01 13:15 14.95121 38.90048 35938 ft 505 kts 358°
2026-05-01 13:16 15.02169 38.90052 35933 ft 505 kts 358°
2026-05-01 13:16 15.09205 38.90060 35934 ft 505 kts 358°
2026-05-01 13:17 15.23231 38.90076 35927 ft 506 kts 358°
2026-05-01 13:18 15.33802 38.90174 35925 ft 506 kts 360°
2026-05-01 13:18 15.40847 38.90465 35924 ft 507 kts
2026-05-01 13:19 15.47902 38.90763 35925 ft 507 kts
2026-05-01 13:20 15.58490 38.91159 35917 ft 508 kts 360°
2026-05-01 13:20 15.65515 38.91413 35914 ft 508 kts 360°
2026-05-01 13:21 15.76115 38.91791 35916 ft 508 kts 360°
2026-05-01 13:21 15.83182 38.92049 35916 ft 508 kts 360°
2026-05-01 13:22 15.90252 38.92298 35908 ft 508 kts 360°
2026-05-01 13:22 15.97320 38.92552 35906 ft 508 kts 360°
2026-05-01 13:23 16.04385 38.92809 35907 ft 508 kts 359°
2026-05-01 13:23 16.11463 38.93064 35906 ft 509 kts 359°
2026-05-01 13:24 16.18513 38.93318 35905 ft 509 kts 359°
2026-05-01 13:25 16.29150 38.93700 35906 ft 510 kts 359°
2026-05-01 13:25 16.36235 38.93958 35897 ft 510 kts 359°
2026-05-01 13:26 16.43327 38.94217 35897 ft 509 kts 359°
2026-05-01 13:26 16.50415 38.94476 35896 ft 510 kts 359°
2026-05-01 13:27 16.57512 38.94731 35897 ft 510 kts 359°
2026-05-01 13:27 16.68155 38.95113 35897 ft 510 kts 359°
2026-05-01 13:28 16.78741 38.95499 35897 ft 510 kts 359°
2026-05-01 13:29 16.92928 38.96018 35888 ft 510 kts 359°
2026-05-01 13:30 17.05918 38.96485 36012 ft 510 kts 359°
2026-05-01 13:31 17.13019 38.96741 36036 ft 510 kts 359°
2026-05-01 13:32 17.30724 38.97397 36037 ft 510 kts 359°
2026-05-01 13:33 17.48461 38.98045 36037 ft 510 kts 359°
2026-05-01 13:34 17.62603 38.98547 36035 ft 510 kts 359°
2026-05-01 13:35 17.73244 38.98929 36035 ft 509 kts 358°
2026-05-01 13:36 17.83883 38.99312 35985 ft 510 kts 359°
2026-05-01 13:36 17.94535 38.99698 35986 ft 510 kts 358°
2026-05-01 13:37 18.01590 38.99954 35994 ft 510 kts 358°
2026-05-01 13:37 18.08686 39.00210 36000 ft 510 kts 358°
2026-05-01 13:38 18.19336 39.00606 36001 ft 511 kts 358°
2026-05-01 13:39 18.26437 39.00986 35995 ft 511 kts 359°
2026-05-01 13:39 18.33547 39.01407 36064 ft 511 kts 359°
2026-05-01 13:40 18.40639 39.01814 36128 ft 510 kts 359°
2026-05-01 13:40 18.47694 39.02205 36145 ft 510 kts 359°
2026-05-01 13:41 18.54796 39.02598 36130 ft 511 kts 359°
2026-05-01 13:41 18.61902 39.02989 36117 ft 511 kts 359°
2026-05-01 13:42 18.69007 39.03385 36028 ft 511 kts 359°
2026-05-01 13:42 18.76107 39.03779 36002 ft 510 kts 358°
2026-05-01 13:43 18.83210 39.04170 35999 ft 511 kts 358°
2026-05-01 13:43 18.90258 39.04562 35994 ft 511 kts 358°
2026-05-01 13:44 18.97416 39.04961 35993 ft 511 kts 358°
2026-05-01 13:44 19.04488 39.05353 35981 ft 511 kts 358°
2026-05-01 13:45 19.11578 39.05532 35981 ft 505 kts 350°
2026-05-01 13:45 19.18418 39.04170 35970 ft 498 kts 341°
2026-05-01 13:46 19.25061 39.02322 35966 ft 497 kts 340°
2026-05-01 13:46 19.31734 39.00381 35962 ft 497 kts 339°
2026-05-01 13:47 19.38406 38.98452 35955 ft 497 kts 340°
2026-05-01 13:47 19.45082 38.96544 35953 ft 496 kts 340°
2026-05-01 13:48 19.51757 38.94637 35943 ft 496 kts 340°
2026-05-01 13:48 19.58418 38.92734 35943 ft 495 kts 340°
2026-05-01 13:49 19.65082 38.90824 35934 ft 495 kts 339°
2026-05-01 13:49 19.71688 38.88935 35935 ft 495 kts 339°
2026-05-01 13:50 19.78341 38.87029 35925 ft 495 kts 339°
2026-05-01 13:50 19.85005 38.85122 35923 ft 495 kts 339°
2026-05-01 13:51 19.91648 38.83216 35915 ft 494 kts 339°
2026-05-01 13:51 19.98289 38.81304 35914 ft 494 kts 339°
2026-05-01 13:52 20.04923 38.79396 35902 ft 493 kts 339°
2026-05-01 13:52 20.11495 38.77505 35864 ft 492 kts 339°
2026-05-01 13:53 20.18113 38.75601 35856 ft 492 kts 339°
2026-05-01 13:53 20.28043 38.72739 35856 ft 492 kts 339°
2026-05-01 13:54 20.34654 38.70834 35864 ft 492 kts 339°
2026-05-01 13:54 20.41263 38.68922 35898 ft 492 kts 339°
2026-05-01 13:55 20.47871 38.67008 35897 ft 491 kts 339°
2026-05-01 13:55 20.54476 38.65096 35897 ft 492 kts 339°
2026-05-01 13:56 20.61085 38.63179 35886 ft 492 kts 339°
2026-05-01 13:56 20.67694 38.61262 35888 ft 492 kts 339°
2026-05-01 13:57 20.73185 38.59669 35887 ft 491 kts 339°
2026-05-01 13:57 20.80982 38.57859 35861 ft 501 kts 349°
2026-05-01 13:58 20.88027 38.58481 35881 ft 519 kts
2026-05-01 13:58 20.91459 38.59803 35880 ft 529 kts 20°
2026-05-01 13:58 20.94718 38.61674 35877 ft 533 kts 25°
2026-05-01 13:59 21.01085 38.65824 35860 ft 537 kts 27°
2026-05-01 13:59 21.07407 38.70082 35864 ft 537 kts 27°
2026-05-01 14:00 21.13749 38.74307 35881 ft 537 kts 26°
2026-05-01 14:00 21.20126 38.78514 35867 ft 538 kts 26°
2026-05-01 14:01 21.26461 38.82685 35861 ft 538 kts 26°
2026-05-01 14:01 21.32843 38.86891 35861 ft 538 kts 26°
2026-05-01 14:02 21.39235 38.91111 35859 ft 539 kts 26°
2026-05-01 14:02 21.45627 38.95338 35859 ft 539 kts 26°
2026-05-01 14:03 21.52022 38.99571 35842 ft 540 kts 26°
2026-05-01 14:03 21.58425 39.03812 35831 ft 540 kts 26°
2026-05-01 14:04 21.64905 39.07766 35831 ft 534 kts 17°
2026-05-01 14:04 21.68382 39.09035 35829 ft 523 kts
2026-05-01 14:04 21.70787 39.09520 35830 ft 517 kts 360°
2026-05-01 14:05 21.75468 39.09573 35832 ft 502 kts 346°
2026-05-01 14:05 21.78860 39.08858 35834 ft 492 kts 336°
2026-05-01 14:05 21.85234 39.06333 35833 ft 487 kts 331°
2026-05-01 14:06 21.91492 39.03544 35832 ft 486 kts 330°